This is the latest recevied weather packets stored in our database for station/object EA1FBN. If no packets are shown the sender has not sent any weather packets the latest 10 day(s).
| Time | Temp. | Humidity | Pressure | Rain* | Wind** | Luminosity | Snow |
|---|---|---|---|---|---|---|---|
| 1777724724 | 16.67° C | 66% | 1015.6 hPa | 0.76 mm | - | - | - |
| 1777724424 | 16.67° C | 67% | 1015.5 hPa | 0.25 mm | - | - | - |
| 1777724124 | 16.11° C | 67% | 1015.5 hPa | 0.25 mm | - | - | - |
| 1777723824 | 16.11° C | 66% | 1015.5 hPa | 0.25 mm | - | - | - |
| 1777723524 | 16.67° C | 68% | 1015.4 hPa | 0 mm | - | - | - |
| 1777722624 | 16.67° C | 67% | 1015.4 hPa | 0 mm | - | - | - |
| 1777722024 | 16.67° C | 70% | 1015.5 hPa | 0 mm | - | - | - |
| 1777721724 | 16.11° C | 72% | 1015.6 hPa | 0 mm | - | - | - |
| 1777721424 | 16.11° C | 71% | 1015.7 hPa | 0 mm | - | - | - |
| 1777721124 | 16.11° C | 71% | 1015.8 hPa | 0 mm | - | - | - |
| 1777720824 | 15.56° C | 72% | 1015.9 hPa | 0 mm | - | - | - |
| 1777720524 | 15.56° C | 72% | 1015.9 hPa | 0 mm | - | - | - |
| 1777720224 | 15.56° C | 73% | 1015.9 hPa | 0 mm | - | - | - |
| 1777719924 | 15° C | 74% | 1016.1 hPa | 0 mm | - | - | - |
| 1777719624 | 15° C | 73% | 1016.2 hPa | 0 mm | - | - | - |
| 1777719324 | 14.44° C | 67% | 1016.4 hPa | 0 mm | - | - | - |
| 1777719024 | 13.89° C | 67% | 1016.5 hPa | 0 mm | - | - | - |
| 1777718724 | 13.33° C | 68% | 1016.7 hPa | 0 mm | - | - | - |
| 1777718424 | 13.33° C | 69% | 1016.8 hPa | 0 mm | - | - | - |
| 1777718124 | 13.33° C | 70% | 1017.1 hPa | 0 mm | - | - | - |
| 1777717824 | 13.33° C | 70% | 1017.2 hPa | 0 mm | - | - | - |
| 1777717524 | 13.33° C | 71% | 1017.3 hPa | 0 mm | - | - | - |
| 1777717224 | 13.89° C | 72% | 1017.5 hPa | 0 mm | - | - | - |
| 1777716924 | 13.33° C | 72% | 1017.6 hPa | 0 mm | - | - | - |
| 1777716624 | 13.33° C | 71% | 1017.6 hPa | 0 mm | - | - | - |
* Rain latest hour (hover to see other rain measurements)
** Current wind speed in m/s (hover to see current wind gust speed)